User: anonymous   Login
Location: Unspecified
(0.0000°N, 0.0000°E)
Time: 19:26:57
(UTC+00:00)
Language:

ELEKTRO-L - Orbit

View from above orbital plane
View from above orbital plane
View from above satellite
View from above satellite

Ground track
Ground track

The orbit data is extracted from the following two-line orbital elements,

1 37344U 11001A   18146.99233235  .00000103  00000-0  00000+0 0  9993
2 37344   3.1433  76.5188 0005670 295.5438  64.0394  1.00216951 26959
Epoch (UTC): 26 May 2018 23:48:57
Eccentricity: 0.0005670
inclination: 3.1433°
perigee height: 35777 km
apogee height: 35825 km
right ascension of ascending node: 76.5188°
argument of perigee: 295.5438°
revolutions per day: 1.00216951
mean anomaly at epoch: 64.0394°
orbit number at epoch: 2695

The dashed part of the orbit path shows where the satellite is in the earth's shadow,  

DLR